North Canton, OH

9:08 AM EDT on October 01, 2016 (GMT -0400)
Akron-Canton Regional

Weather History for KCAK - March, 2014

Change the Weather History Date:

Saturday, March 22, 2014

  Actual Average Record
Temperature  
Mean Temperature 43 °F 40 °F  
Max Temperature 51 °F 49 °F 83 °F (2012)
Min Temperature 35 °F 30 °F 10 °F (1888)
Degree Days  
Heating Degree Days 22 25  
Month to date heating degree days 732 640  
Since 1 July heating degree days 5555 5184  
Cooling Degree Days 0 0  
Month to date cooling degree days 0 0  
Year to date cooling degree days 0 0  
Moisture  
Dew Point 32 °F    
Average Humidity 65    
Maximum Humidity 79    
Minimum Humidity 50    
Precipitation  
Precipitation T in 0.10 in 0.82 in (1949)
Month to date precipitation 0.88 2.02  
Year to date precipitation 4.39 6.94  
Snow  
Snow 0.00 in 0.20 in - ()
Month to date snowfall 6.6 6.5  
Since 1 July snowfall 65.9 43.0  
Snow Depth 0.00 in    
Sea Level Pressure  
Sea Level Pressure 29.97 in    
Wind  
Wind Speed 13 mph (NW)    
Max Wind Speed 18 mph    
Max Gust Speed 18 mph    
Visibility 8 miles    
Events Rain    
T = Trace of Precipitation, MM = Missing Value Source: NWS Daily Summary

Daily Weather History Graph

Daily Weather History Graph

Search for Another Location

Airport or City:

Trip Planner

Search our weather history database for the weather conditions in past years. The results will help you decide how hot, cold, wet, or windy it might be!

Date:

Astronomy

Mar. 22, 2014 Rise Set
Actual Time 7:25 AM EDT 7:40 PM EDT
Civil Twilight 6:58 AM EDT 8:07 PM EDT
Nautical Twilight 6:26 AM EDT 8:39 PM EDT
Astronomical Twilight 5:53 AM EDT 9:12 PM EDT
Moon 12:59 AM EDT (3/22) 11:05 AM EDT (3/22)
Length of Visible Light 13h 09m
Length of Day
12h 14m
Waning Gibbous, 65% of the Moon is Illuminated
Mar 22
Waning Gibbous
Mar 23
Last Quarter
Mar 30
New
Apr 7
First Quarter
Apr 15
Full

Hourly Weather History & Observations

Time (EDT) Temp. Windchill Dew Point Humidity Pressure Visibility Wind Dir Wind Speed Gust Speed Precip Events Conditions
12:51 AM 41.9 °F 35.4 °F 34.7 °F 76% 29.78 in 8.0 mi SSE 11.5 mph - N/A   Overcast
1:51 AM 42.1 °F 35.7 °F 35.1 °F 76% 29.75 in 10.0 mi South 11.5 mph - N/A   Partly Cloudy
2:51 AM 45.0 °F 39.3 °F 32.0 °F 60% 29.73 in 10.0 mi SSW 11.5 mph - N/A   Overcast
3:51 AM 46.9 °F - 31.1 °F 54% 29.70 in 10.0 mi SSW 11.5 mph - 0.00 in Rain Light Rain
4:51 AM 46.9 °F - 35.1 °F 63% 29.74 in 10.0 mi NW 17.3 mph - 0.00 in   Overcast
5:51 AM 44.1 °F 38.1 °F 37.0 °F 76% 29.78 in 10.0 mi NNW 11.5 mph - 0.00 in   Overcast
6:51 AM 42.1 °F 36.1 °F 36.0 °F 79% 29.82 in 10.0 mi West 10.4 mph - N/A   Overcast
7:51 AM 42.1 °F 33.6 °F 36.0 °F 79% 29.87 in 7.0 mi NW 18.4 mph - N/A   Overcast
8:51 AM 41.0 °F 32.2 °F 35.1 °F 79% 29.92 in 7.0 mi NW 18.4 mph - N/A   Overcast
9:51 AM 41.0 °F 33.1 °F 34.0 °F 76% 29.98 in 7.0 mi NNW 15.0 mph - N/A   Overcast
10:51 AM 41.0 °F 33.1 °F 32.0 °F 70% 30.00 in 6.0 mi NNW 15.0 mph - N/A   Haze
11:51 AM 43.0 °F 35.7 °F 34.0 °F 71% 30.03 in 6.0 mi North 15.0 mph - N/A   Haze
12:51 PM 43.0 °F 35.7 °F 33.1 °F 68% 30.06 in 6.0 mi North 15.0 mph - N/A   Haze
1:51 PM 46.0 °F 39.9 °F 33.1 °F 61% 30.06 in 6.0 mi NNW 13.8 mph - N/A   Haze
2:51 PM 51.1 °F - 33.1 °F 50% 30.05 in 6.0 mi NW 13.8 mph - N/A   Haze
3:51 PM 46.9 °F - 29.8 °F 51% 30.05 in 9.0 mi NW 13.8 mph - N/A   Overcast
4:51 PM 44.1 °F 38.1 °F 29.5 °F 57% 30.06 in 9.0 mi NW 11.5 mph - N/A   Overcast
5:51 PM 43.0 °F 36.8 °F 29.5 °F 59% 30.07 in 9.0 mi NNW 11.5 mph - N/A   Overcast
6:51 PM 40.1 °F 33.2 °F 28.0 °F 62% 30.11 in 9.0 mi NNW 11.5 mph - N/A   Overcast
7:51 PM 37.6 °F 30.0 °F 27.9 °F 68% 30.13 in 9.0 mi NNW 11.5 mph - N/A   Overcast
8:51 PM 36.9 °F 29.1 °F 28.0 °F 70% 30.15 in 9.0 mi NNW 11.5 mph - N/A   Overcast
9:51 PM 36.5 °F 28.7 °F 26.6 °F 67% 30.15 in 9.0 mi NNW 11.5 mph - N/A   Overcast
10:51 PM 36.0 °F 28.0 °F 25.9 °F 67% 30.15 in 10.0 mi NNW 11.5 mph - N/A   Overcast
11:51 PM 35.1 °F 29.3 °F 25.9 °F 69% 30.15 in 10.0 mi West 6.9 mph - N/A   Overcast